Time,TemperatureF,DewpointF,PressureIn,WindDirection,WindDirectionDegrees,WindSpeedMPH,WindSpeedGustMPH,Humidity,HourlyPrecipIn,Conditions,Clouds,dailyrainin,SoftwareType,DateUTC
2013-03-27 00:04:00,39.8,24.5,30.27,SE,145,0.0,0.0,54,0.00,,---,0.00,VWS V14.00,2013-03-27 05:04:00,
2013-03-27 00:09:00,39.6,24.3,30.27,SE,145,0.0,0.0,54,0.00,,---,0.00,VWS V14.00,2013-03-27 05:09:00,
2013-03-27 00:15:00,39.5,24.7,30.27,SE,145,0.0,0.0,55,0.00,,---,0.00,VWS V14.00,2013-03-27 05:15:00,
2013-03-27 00:20:00,39.4,24.6,30.27,SE,145,0.0,0.0,55,0.00,,---,0.00,VWS V14.00,2013-03-27 05:20:00,
2013-03-27 00:26:00,39.2,24.4,30.26,SE,145,0.0,0.0,55,0.00,,---,0.00,VWS V14.00,2013-03-27 05:26:00,
2013-03-27 00:32:00,39.1,24.7,30.26,SE,145,0.0,0.0,56,0.00,,---,0.00,VWS V14.00,2013-03-27 05:32:00,
2013-03-27 00:37:00,38.9,24.6,30.26,SE,145,0.0,0.0,56,0.00,,---,0.00,VWS V14.00,2013-03-27 05:37:00,
2013-03-27 00:42:00,38.9,24.1,30.25,SE,145,0.0,0.0,55,0.00,,---,0.00,VWS V14.00,2013-03-27 05:42:00,
2013-03-27 00:48:00,39.0,24.6,30.25,SE,145,0.0,0.0,56,0.00,,---,0.00,VWS V14.00,2013-03-27 05:48:00,
2013-03-27 00:54:00,39.0,24.6,30.25,SE,145,0.0,0.0,56,0.00,,---,0.00,VWS V14.00,2013-03-27 05:54:00,
2013-03-27 00:59:00,38.9,24.6,30.25,SE,145,0.0,0.0,56,0.00,,---,0.00,VWS V14.00,2013-03-27 05:59:00,
2013-03-27 01:04:00,38.8,24.5,30.25,SE,145,0.0,0.0,56,0.00,,---,0.00,VWS V14.00,2013-03-27 06:04:00,
2013-03-27 01:09:00,38.6,24.7,30.25,SE,145,0.0,0.0,57,0.00,,---,0.00,VWS V14.00,2013-03-27 06:09:00,
2013-03-27 01:14:00,38.4,24.5,30.25,SE,145,0.0,0.0,57,0.00,,---,0.00,VWS V14.00,2013-03-27 06:14:00,
2013-03-27 01:20:00,38.2,24.3,30.25,SE,145,0.0,0.0,57,0.00,,---,0.00,VWS V14.00,2013-03-27 06:20:00,
2013-03-27 01:25:00,38.1,24.2,30.25,SE,145,0.0,0.0,57,0.00,,---,0.00,VWS V14.00,2013-03-27 06:25:00,
2013-03-27 01:30:00,38.1,24.6,30.25,SE,145,0.0,0.0,58,0.00,,---,0.00,VWS V14.00,2013-03-27 06:30:00,
2013-03-27 01:35:00,38.2,24.7,30.25,SE,145,0.0,0.0,58,0.00,,---,0.00,VWS V14.00,2013-03-27 06:35:00,
2013-03-27 01:40:00,38.2,24.7,30.24,SE,145,0.0,0.0,58,0.00,,---,0.00,VWS V14.00,2013-03-27 06:40:00,
2013-03-27 01:45:00,38.2,24.7,30.24,SE,145,0.0,0.0,58,0.00,,---,0.00,VWS V14.00,2013-03-27 06:45:00,
2013-03-27 01:50:00,38.1,24.6,30.24,SE,145,0.0,0.0,58,0.00,,---,0.00,VWS V14.00,2013-03-27 06:50:00,
2013-03-27 01:56:00,38.0,24.5,30.24,SE,145,0.0,0.0,58,0.00,,---,0.00,VWS V14.00,2013-03-27 06:56:00,
2013-03-27 02:01:00,37.9,24.5,30.24,SE,145,0.0,0.0,58,0.00,,---,0.00,VWS V14.00,2013-03-27 07:01:00,
2013-03-27 02:07:00,37.9,24.5,30.24,SE,145,0.0,0.0,58,0.00,,---,0.00,VWS V14.00,2013-03-27 07:07:00,
2013-03-27 02:13:00,37.9,24.5,30.23,SE,145,0.0,0.0,58,0.00,,---,0.00,VWS V14.00,2013-03-27 07:13:00,
2013-03-27 02:19:00,37.7,24.3,30.23,SE,145,0.0,0.0,58,0.00,,---,0.00,VWS V14.00,2013-03-27 07:19:00,
2013-03-27 02:24:00,37.7,24.7,30.23,SE,145,0.0,0.0,59,0.00,,---,0.00,VWS V14.00,2013-03-27 07:24:00,
2013-03-27 02:29:00,37.7,24.7,30.23,SE,145,0.0,0.0,59,0.00,,---,0.00,VWS V14.00,2013-03-27 07:29:00,
2013-03-27 02:35:00,37.7,24.7,30.23,SE,145,0.0,4.0,59,0.00,,---,0.00,VWS V14.00,2013-03-27 07:35:00,
2013-03-27 02:40:00,37.7,24.7,30.22,SE,145,0.0,0.0,59,0.00,,---,0.00,VWS V14.00,2013-03-27 07:40:00,
2013-03-27 02:45:00,37.6,24.6,30.22,SE,145,0.0,0.0,59,0.00,,---,0.00,VWS V14.00,2013-03-27 07:45:00,
2013-03-27 02:51:00,37.7,24.7,30.22,SE,145,0.0,5.0,59,0.00,,---,0.00,VWS V14.00,2013-03-27 07:51:00,
2013-03-27 02:56:00,37.7,24.3,30.22,SE,145,0.0,0.0,58,0.00,,---,0.00,VWS V14.00,2013-03-27 07:56:00,
2013-03-27 03:01:00,37.8,24.4,30.22,SE,145,0.0,0.0,58,0.00,,---,0.00,VWS V14.00,2013-03-27 08:01:00,
2013-03-27 03:06:00,37.8,24.4,30.22,SE,145,0.0,3.0,58,0.00,,---,0.00,VWS V14.00,2013-03-27 08:06:00,
2013-03-27 03:12:00,37.8,24.4,30.21,SE,145,0.0,0.0,58,0.00,,---,0.00,VWS V14.00,2013-03-27 08:12:00,
2013-03-27 03:17:00,37.7,24.3,30.21,SE,145,0.0,0.0,58,0.00,,---,0.00,VWS V14.00,2013-03-27 08:17:00,
2013-03-27 03:22:00,37.7,24.3,30.21,SE,145,0.0,0.0,58,0.00,,---,0.00,VWS V14.00,2013-03-27 08:22:00,
2013-03-27 03:27:00,37.6,24.2,30.21,SE,145,0.0,0.0,58,0.00,,---,0.00,VWS V14.00,2013-03-27 08:27:00,
2013-03-27 03:32:00,37.6,24.2,30.21,SE,145,0.0,0.0,58,0.00,,---,0.00,VWS V14.00,2013-03-27 08:32:00,
2013-03-27 03:37:00,37.6,24.2,30.21,SE,145,0.0,0.0,58,0.00,,---,0.00,VWS V14.00,2013-03-27 08:37:00,
2013-03-27 03:43:00,37.5,24.1,30.21,SE,144,1.0,4.0,58,0.00,,---,0.00,VWS V14.00,2013-03-27 08:43:00,
2013-03-27 03:48:00,37.4,24.0,30.21,SE,144,0.0,0.0,58,0.00,,---,0.00,VWS V14.00,2013-03-27 08:48:00,
2013-03-27 03:53:00,37.3,24.3,30.21,SE,144,0.0,0.0,59,0.00,,---,0.00,VWS V14.00,2013-03-27 08:53:00,
2013-03-27 03:58:00,37.2,24.2,30.20,SE,144,0.0,0.0,59,0.00,,---,0.00,VWS V14.00,2013-03-27 08:58:00,
2013-03-27 04:03:00,37.0,24.0,30.20,SE,144,1.0,2.0,59,0.00,,---,0.00,VWS V14.00,2013-03-27 09:03:00,
2013-03-27 04:08:00,37.0,24.0,30.20,SE,144,0.0,0.0,59,0.00,,---,0.00,VWS V14.00,2013-03-27 09:08:00,
2013-03-27 04:13:00,36.9,24.3,30.20,SE,144,0.0,0.0,60,0.00,,---,0.00,VWS V14.00,2013-03-27 09:13:00,
2013-03-27 04:19:00,36.8,24.2,30.20,SE,144,0.0,0.0,60,0.00,,---,0.00,VWS V14.00,2013-03-27 09:19:00,
2013-03-27 04:24:00,36.8,24.2,30.20,SE,144,0.0,0.0,60,0.00,,---,0.00,VWS V14.00,2013-03-27 09:24:00,
2013-03-27 04:29:00,36.7,24.1,30.20,SE,144,0.0,0.0,60,0.00,,---,0.00,VWS V14.00,2013-03-27 09:29:00,
2013-03-27 04:34:00,36.6,24.0,30.20,SE,144,0.0,0.0,60,0.00,,---,0.00,VWS V14.00,2013-03-27 09:34:00,
2013-03-27 04:40:00,36.5,24.3,30.20,SE,144,0.0,0.0,61,0.00,,---,0.00,VWS V14.00,2013-03-27 09:40:00,
2013-03-27 04:45:00,36.4,24.2,30.20,SE,144,0.0,0.0,61,0.00,,---,0.00,VWS V14.00,2013-03-27 09:45:00,
2013-03-27 04:50:00,36.4,24.2,30.20,SE,144,0.0,0.0,61,0.00,,---,0.00,VWS V14.00,2013-03-27 09:50:00,
2013-03-27 04:55:00,36.4,24.2,30.21,SE,144,0.0,0.0,61,0.00,,---,0.00,VWS V14.00,2013-03-27 09:55:00,
2013-03-27 05:00:00,36.2,24.1,30.21,SE,144,0.0,0.0,61,0.00,,---,0.00,VWS V14.00,2013-03-27 10:00:00,
2013-03-27 05:05:00,36.1,24.4,30.21,SE,144,0.0,0.0,62,0.00,,---,0.00,VWS V14.00,2013-03-27 10:05:00,
2013-03-27 05:10:00,36.1,24.4,30.20,SE,144,3.0,3.0,62,0.00,,---,0.00,VWS V14.00,2013-03-27 10:10:00,
2013-03-27 05:15:00,36.0,24.3,30.20,SE,144,0.0,0.0,62,0.00,,---,0.00,VWS V14.00,2013-03-27 10:15:00,
2013-03-27 05:21:00,35.8,24.5,30.20,SE,144,0.0,0.0,63,0.00,,---,0.00,VWS V14.00,2013-03-27 10:21:00,
2013-03-27 05:26:00,35.7,24.4,30.20,SE,144,0.0,0.0,63,0.00,,---,0.00,VWS V14.00,2013-03-27 10:26:00,
2013-03-27 05:32:00,35.5,24.5,30.20,SE,144,0.0,0.0,64,0.00,,---,0.00,VWS V14.00,2013-03-27 10:32:00,
2013-03-27 05:37:00,35.4,24.5,30.20,SE,144,0.0,0.0,64,0.00,,---,0.00,VWS V14.00,2013-03-27 10:37:00,
2013-03-27 05:43:00,35.2,24.3,30.20,SE,144,0.0,0.0,64,0.00,,---,0.00,VWS V14.00,2013-03-27 10:43:00,
2013-03-27 05:48:00,35.0,24.4,30.20,SE,144,0.0,0.0,65,0.00,,---,0.00,VWS V14.00,2013-03-27 10:48:00,
2013-03-27 05:53:00,34.8,24.2,30.20,SE,144,0.0,0.0,65,0.00,,---,0.00,VWS V14.00,2013-03-27 10:53:00,
2013-03-27 05:58:00,34.7,24.5,30.20,SE,144,0.0,0.0,66,0.00,,---,0.00,VWS V14.00,2013-03-27 10:58:00,
2013-03-27 06:03:00,34.8,24.6,30.20,SE,144,0.0,0.0,66,0.00,,---,0.00,VWS V14.00,2013-03-27 11:03:00,
2013-03-27 06:08:00,34.8,24.2,30.20,SE,144,0.0,0.0,65,0.00,,---,0.00,VWS V14.00,2013-03-27 11:08:00,
2013-03-27 06:13:00,34.8,24.2,30.21,SE,144,0.0,0.0,65,0.00,,---,0.00,VWS V14.00,2013-03-27 11:13:00,
2013-03-27 06:18:00,35.0,24.4,30.21,SE,144,0.0,0.0,65,0.00,,---,0.00,VWS V14.00,2013-03-27 11:18:00,
2013-03-27 06:23:00,35.0,24.4,30.21,SE,144,0.0,0.0,65,0.00,,---,0.00,VWS V14.00,2013-03-27 11:23:00,
2013-03-27 06:29:00,35.0,24.4,30.22,SE,144,0.0,0.0,65,0.00,,---,0.00,VWS V14.00,2013-03-27 11:29:00,
2013-03-27 06:34:00,35.0,24.4,30.22,SE,144,0.0,0.0,65,0.00,,---,0.00,VWS V14.00,2013-03-27 11:34:00,
2013-03-27 06:40:00,35.0,24.4,30.22,SE,144,0.0,0.0,65,0.00,,---,0.00,VWS V14.00,2013-03-27 11:40:00,
2013-03-27 06:45:00,35.0,24.4,30.22,SE,144,0.0,0.0,65,0.00,,---,0.00,VWS V14.00,2013-03-27 11:45:00,
2013-03-27 06:50:00,35.1,24.5,30.22,SE,144,0.0,0.0,65,0.00,,---,0.00,VWS V14.00,2013-03-27 11:50:00,
2013-03-27 06:56:00,35.1,24.5,30.22,SE,144,0.0,0.0,65,0.00,,---,0.00,VWS V14.00,2013-03-27 11:56:00,
2013-03-27 07:02:00,35.0,24.4,30.22,SE,144,0.0,0.0,65,0.00,,---,0.00,VWS V14.00,2013-03-27 12:02:00,
2013-03-27 07:07:00,35.0,24.8,30.22,SE,144,0.0,1.0,66,0.00,,---,0.00,VWS V14.00,2013-03-27 12:07:00,
2013-03-27 07:12:00,34.8,24.6,30.23,SE,144,0.0,0.0,66,0.00,,---,0.00,VWS V14.00,2013-03-27 12:12:00,
2013-03-27 07:18:00,34.8,24.6,30.23,SE,144,0.0,0.0,66,0.00,,---,0.00,VWS V14.00,2013-03-27 12:18:00,
2013-03-27 07:24:00,34.9,24.7,30.23,SE,144,0.0,0.0,66,0.00,,---,0.00,VWS V14.00,2013-03-27 12:24:00,
2013-03-27 07:29:00,34.9,25.1,30.24,SE,144,0.0,0.0,67,0.00,,---,0.00,VWS V14.00,2013-03-27 12:29:00,
2013-03-27 07:34:00,34.9,25.1,30.24,SE,144,0.0,0.0,67,0.00,,---,0.00,VWS V14.00,2013-03-27 12:34:00,
2013-03-27 07:39:00,34.9,25.1,30.24,SE,144,0.0,0.0,67,0.00,,---,0.00,VWS V14.00,2013-03-27 12:39:00,
2013-03-27 07:44:00,35.0,25.2,30.24,SE,144,3.0,4.0,67,0.00,,---,0.00,VWS V14.00,2013-03-27 12:44:00,
2013-03-27 07:50:00,35.3,25.5,30.24,SE,144,0.0,0.0,67,0.00,,---,0.00,VWS V14.00,2013-03-27 12:50:00,
2013-03-27 07:55:00,35.5,25.3,30.24,SE,144,0.0,4.0,66,0.00,,---,0.00,VWS V14.00,2013-03-27 12:55:00,
2013-03-27 08:00:00,35.9,25.7,30.24,SE,144,0.0,2.0,66,0.00,,---,0.00,VWS V14.00,2013-03-27 13:00:00,
2013-03-27 08:05:00,36.2,25.6,30.24,SE,144,2.0,2.0,65,0.00,,---,0.00,VWS V14.00,2013-03-27 13:05:00,
2013-03-27 08:10:00,36.6,26.0,30.25,SE,144,2.0,5.0,65,0.00,,---,0.00,VWS V14.00,2013-03-27 13:10:00,
2013-03-27 08:16:00,37.1,26.1,30.25,SE,144,0.0,0.0,64,0.00,,---,0.00,VWS V14.00,2013-03-27 13:16:00,
2013-03-27 08:22:00,37.5,26.5,30.25,SE,139,0.0,0.0,64,0.00,,---,0.00,VWS V14.00,2013-03-27 13:22:00,
2013-03-27 08:27:00,37.8,26.4,30.25,SE,132,0.0,4.0,63,0.00,,---,0.00,VWS V14.00,2013-03-27 13:27:00,
2013-03-27 08:33:00,38.2,26.7,30.25,ESE,119,0.0,0.0,63,0.00,,---,0.00,VWS V14.00,2013-03-27 13:33:00,
2013-03-27 08:38:00,38.6,26.7,30.25,SE,139,1.0,4.0,62,0.00,,---,0.00,VWS V14.00,2013-03-27 13:38:00,
2013-03-27 08:43:00,38.8,26.9,30.25,SE,125,0.0,5.0,62,0.00,,---,0.00,VWS V14.00,2013-03-27 13:43:00,
2013-03-27 08:49:00,39.2,26.9,30.25,SE,133,0.0,6.0,61,0.00,,---,0.00,VWS V14.00,2013-03-27 13:49:00,
2013-03-27 08:54:00,39.7,27.4,30.25,SE,134,0.0,0.0,61,0.00,,---,0.00,VWS V14.00,2013-03-27 13:54:00,
2013-03-27 08:59:00,40.2,27.0,30.26,SE,139,3.0,10.0,59,0.00,,---,0.00,VWS V14.00,2013-03-27 13:59:00,
2013-03-27 09:04:00,40.5,27.3,30.26,SE,128,9.0,9.0,59,0.00,,---,0.00,VWS V14.00,2013-03-27 14:04:00,
2013-03-27 09:09:00,41.1,27.5,30.26,SE,141,5.0,5.0,58,0.00,,---,0.00,VWS V14.00,2013-03-27 14:09:00,
2013-03-27 09:14:00,41.7,27.2,30.26,SSW,202,10.0,13.0,56,0.00,,---,0.00,VWS V14.00,2013-03-27 14:14:00,
2013-03-27 09:19:00,42.0,27.5,30.26,SE,143,3.0,13.0,56,0.00,,---,0.00,VWS V14.00,2013-03-27 14:19:00,
2013-03-27 09:24:00,42.5,27.0,30.26,SE,143,11.0,15.0,54,0.00,,---,0.00,VWS V14.00,2013-03-27 14:24:00,
2013-03-27 09:29:00,42.9,27.4,30.25,SE,127,6.0,11.0,54,0.00,,---,0.00,VWS V14.00,2013-03-27 14:29:00,
2013-03-27 09:34:00,43.5,27.5,30.25,ESE,121,9.0,13.0,53,0.00,,---,0.00,VWS V14.00,2013-03-27 14:34:00,
2013-03-27 09:40:00,44.2,26.8,30.25,SE,133,7.0,16.0,50,0.00,,---,0.00,VWS V14.00,2013-03-27 14:40:00,
2013-03-27 09:45:00,44.9,26.4,30.25,SE,141,0.0,9.0,48,0.00,,---,0.00,VWS V14.00,2013-03-27 14:45:00,
2013-03-27 09:50:00,45.7,26.6,30.25,ESE,113,4.0,14.0,47,0.00,,---,0.00,VWS V14.00,2013-03-27 14:50:00,
2013-03-27 09:55:00,46.4,26.8,30.25,ESE,118,9.0,9.0,46,0.00,,---,0.00,VWS V14.00,2013-03-27 14:55:00,
2013-03-27 10:00:00,46.7,27.0,30.25,South,172,7.0,11.0,46,0.00,,---,0.00,VWS V14.00,2013-03-27 15:00:00,
2013-03-27 10:05:00,47.0,26.8,30.25,SE,129,6.0,14.0,45,0.00,,---,0.00,VWS V14.00,2013-03-27 15:05:00,
2013-03-27 10:11:00,47.1,26.9,30.24,South,189,5.0,15.0,45,0.00,,---,0.00,VWS V14.00,2013-03-27 15:11:00,
2013-03-27 10:16:00,47.8,27.0,30.24,SE,146,12.0,12.0,44,0.00,,---,0.00,VWS V14.00,2013-03-27 15:16:00,
2013-03-27 10:22:00,48.5,27.0,30.24,SE,136,11.0,19.0,43,0.00,,---,0.00,VWS V14.00,2013-03-27 15:22:00,
2013-03-27 10:28:00,48.7,26.6,30.24,SSE,149,8.0,14.0,42,0.00,,---,0.00,VWS V14.00,2013-03-27 15:28:00,
2013-03-27 10:33:00,49.7,27.6,30.24,SSE,152,9.0,19.0,42,0.00,,---,0.00,VWS V14.00,2013-03-27 15:33:00,
2013-03-27 10:38:00,49.5,28.0,30.24,South,191,3.0,12.0,43,0.00,,---,0.00,VWS V14.00,2013-03-27 15:38:00,
2013-03-27 10:43:00,49.8,27.1,30.24,SE,125,19.0,19.0,41,0.00,,---,0.00,VWS V14.00,2013-03-27 15:43:00,
2013-03-27 10:48:00,49.6,26.9,30.24,SSW,196,4.0,16.0,41,0.00,,---,0.00,VWS V14.00,2013-03-27 15:48:00,
2013-03-27 10:53:00,50.3,27.5,30.24,SE,125,9.0,12.0,41,0.00,,---,0.00,VWS V14.00,2013-03-27 15:53:00,
2013-03-27 10:58:00,50.6,27.2,30.24,SSW,203,12.0,18.0,40,0.00,,---,0.00,VWS V14.00,2013-03-27 15:58:00,
2013-03-27 11:03:00,50.9,26.8,30.24,SE,124,11.0,18.0,39,0.00,,---,0.00,VWS V14.00,2013-03-27 16:03:00,
2013-03-27 11:08:00,51.5,26.8,30.24,South,169,5.0,18.0,38,0.00,,---,0.00,VWS V14.00,2013-03-27 16:08:00,
2013-03-27 11:13:00,52.4,26.9,30.23,SE,131,11.0,20.0,37,0.00,,---,0.00,VWS V14.00,2013-03-27 16:13:00,
2013-03-27 11:18:00,53.1,26.2,30.23,SSE,149,10.0,22.0,35,0.00,,---,0.00,VWS V14.00,2013-03-27 16:18:00,
2013-03-27 11:24:00,53.1,26.2,30.23,SE,146,10.0,25.0,35,0.00,,---,0.00,VWS V14.00,2013-03-27 16:24:00,
2013-03-27 11:29:00,53.7,26.0,30.22,South,188,9.0,19.0,34,0.00,,---,0.00,VWS V14.00,2013-03-27 16:29:00,
2013-03-27 11:34:00,53.7,26.0,30.22,SSE,165,6.0,16.0,34,0.00,,---,0.00,VWS V14.00,2013-03-27 16:34:00,
2013-03-27 11:40:00,54.4,26.6,30.21,SE,128,19.0,19.0,34,0.00,,---,0.00,VWS V14.00,2013-03-27 16:40:00,
2013-03-27 11:45:00,54.9,26.4,30.21,South,191,3.0,20.0,33,0.00,,---,0.00,VWS V14.00,2013-03-27 16:45:00,
2013-03-27 11:50:00,54.8,26.3,30.21,SSE,148,11.0,21.0,33,0.00,,---,0.00,VWS V14.00,2013-03-27 16:50:00,
2013-03-27 11:55:00,55.2,26.6,30.20,ESE,123,1.0,18.0,33,0.00,,---,0.00,VWS V14.00,2013-03-27 16:55:00,
2013-03-27 12:01:00,55.9,27.2,30.20,SE,137,9.0,17.0,33,0.00,,---,0.00,VWS V14.00,2013-03-27 17:01:00,
2013-03-27 12:06:00,55.7,27.1,30.20,SE,127,13.0,20.0,33,0.00,,---,0.00,VWS V14.00,2013-03-27 17:06:00,
2013-03-27 12:11:00,56.1,26.7,30.19,SE,131,8.0,17.0,32,0.00,,---,0.00,VWS V14.00,2013-03-27 17:11:00,
2013-03-27 12:16:00,56.3,26.8,30.19,SSW,192,14.0,18.0,32,0.00,,---,0.00,VWS V14.00,2013-03-27 17:16:00,
2013-03-27 12:22:00,57.0,26.7,30.19,SSE,164,4.0,18.0,31,0.00,,---,0.00,VWS V14.00,2013-03-27 17:22:00,
2013-03-27 12:27:00,57.5,27.1,30.18,ESE,113,15.0,24.0,31,0.00,,---,0.00,VWS V14.00,2013-03-27 17:27:00,
2013-03-27 12:32:00,57.0,25.9,30.18,SE,134,13.0,19.0,30,0.00,,---,0.00,VWS V14.00,2013-03-27 17:32:00,
2013-03-27 12:37:00,56.6,26.3,30.18,SE,137,10.0,16.0,31,0.00,,---,0.00,VWS V14.00,2013-03-27 17:37:00,
2013-03-27 12:42:00,57.5,26.3,30.17,South,188,4.0,12.0,30,0.00,,---,0.00,VWS V14.00,2013-03-27 17:42:00,
2013-03-27 12:47:00,58.3,26.2,30.17,SE,142,5.0,15.0,29,0.00,,---,0.00,VWS V14.00,2013-03-27 17:47:00,
2013-03-27 12:52:00,58.4,26.3,30.17,South,181,5.0,18.0,29,0.00,,---,0.00,VWS V14.00,2013-03-27 17:52:00,
2013-03-27 12:57:00,58.9,26.7,30.17,South,175,3.0,16.0,29,0.00,,---,0.00,VWS V14.00,2013-03-27 17:57:00,
2013-03-27 13:02:00,58.8,26.6,30.17,SSW,205,13.0,19.0,29,0.00,,---,0.00,VWS V14.00,2013-03-27 18:02:00,
2013-03-27 13:07:00,58.9,26.7,30.17,South,181,10.0,14.0,29,0.00,,---,0.00,VWS V14.00,2013-03-27 18:07:00,
2013-03-27 13:12:00,59.1,26.9,30.16,SSE,158,0.0,14.0,29,0.00,,---,0.00,VWS V14.00,2013-03-27 18:12:00,
2013-03-27 13:17:00,59.1,26.9,30.16,South,170,12.0,18.0,29,0.00,,---,0.00,VWS V14.00,2013-03-27 18:17:00,
2013-03-27 13:22:00,59.5,27.2,30.16,ESE,121,6.0,16.0,29,0.00,,---,0.00,VWS V14.00,2013-03-27 18:22:00,
2013-03-27 13:27:00,60.2,27.0,30.16,ESE,113,10.0,14.0,28,0.00,,---,0.00,VWS V14.00,2013-03-27 18:27:00,
2013-03-27 13:32:00,59.8,27.5,30.16,SE,144,10.0,10.0,29,0.00,,---,0.00,VWS V14.00,2013-03-27 18:32:00,
2013-03-27 13:37:00,59.6,27.3,30.16,SE,127,6.0,14.0,29,0.00,,---,0.00,VWS V14.00,2013-03-27 18:37:00,
2013-03-27 13:42:00,59.8,27.5,30.14,SE,143,19.0,19.0,29,0.00,,---,0.00,VWS V14.00,2013-03-27 18:42:00,
2013-03-27 13:47:00,60.1,27.8,30.14,South,169,4.0,10.0,29,0.00,,---,0.00,VWS V14.00,2013-03-27 18:47:00,
2013-03-27 13:52:00,60.1,26.9,30.14,SE,145,9.0,17.0,28,0.00,,---,0.00,VWS V14.00,2013-03-27 18:52:00,
2013-03-27 13:58:00,60.2,27.0,30.13,SE,131,1.0,17.0,28,0.00,,---,0.00,VWS V14.00,2013-03-27 18:58:00,
2013-03-27 14:03:00,61.1,27.8,30.13,SSE,163,4.0,17.0,28,0.00,,---,0.00,VWS V14.00,2013-03-27 19:03:00,
2013-03-27 14:08:00,61.3,27.9,30.13,SSE,161,6.0,13.0,28,0.00,,---,0.00,VWS V14.00,2013-03-27 19:08:00,
2013-03-27 14:14:00,61.8,28.4,30.11,SE,136,16.0,19.0,28,0.00,,---,0.00,VWS V14.00,2013-03-27 19:14:00,
2013-03-27 14:19:00,61.5,28.1,30.11,ESE,120,11.0,17.0,28,0.00,,---,0.00,VWS V14.00,2013-03-27 19:19:00,
2013-03-27 14:24:00,61.6,28.2,30.11,SE,129,7.0,18.0,28,0.00,,---,0.00,VWS V14.00,2013-03-27 19:24:00,
2013-03-27 14:29:00,61.5,28.1,30.11,SE,137,6.0,20.0,28,0.00,,---,0.00,VWS V14.00,2013-03-27 19:29:00,
2013-03-27 14:34:00,62.1,29.5,30.11,SE,132,17.0,19.0,29,0.00,,---,0.00,VWS V14.00,2013-03-27 19:34:00,
2013-03-27 14:39:00,62.2,28.7,30.11,South,191,4.0,13.0,28,0.00,,---,0.00,VWS V14.00,2013-03-27 19:39:00,
2013-03-27 14:44:00,62.3,29.7,30.10,ESE,113,6.0,14.0,29,0.00,,---,0.00,VWS V14.00,2013-03-27 19:44:00,
2013-03-27 14:49:00,63.2,29.6,30.10,ESE,122,11.0,16.0,28,0.00,,---,0.00,VWS V14.00,2013-03-27 19:49:00,
2013-03-27 14:54:00,63.9,30.2,30.10,SE,131,11.0,17.0,28,0.00,,---,0.00,VWS V14.00,2013-03-27 19:54:00,
2013-03-27 14:59:00,64.0,29.4,30.10,South,173,17.0,17.0,27,0.00,,---,0.00,VWS V14.00,2013-03-27 19:59:00,
2013-03-27 15:04:00,63.8,29.2,30.10,SSW,210,9.0,20.0,27,0.00,,---,0.00,VWS V14.00,2013-03-27 20:04:00,
2013-03-27 15:09:00,63.3,29.7,30.10,South,189,0.0,15.0,28,0.00,,---,0.00,VWS V14.00,2013-03-27 20:09:00,
2013-03-27 15:14:00,63.3,29.7,30.09,SSE,168,14.0,17.0,28,0.00,,---,0.00,VWS V14.00,2013-03-27 20:14:00,
2013-03-27 15:19:00,64.3,30.5,30.09,SE,146,14.0,14.0,28,0.00,,---,0.00,VWS V14.00,2013-03-27 20:19:00,
2013-03-27 15:25:00,64.7,30.9,30.09,SE,138,7.0,10.0,28,0.00,,---,0.00,VWS V14.00,2013-03-27 20:25:00,
2013-03-27 15:31:00,64.0,30.3,30.09,SSW,193,16.0,19.0,28,0.00,,---,0.00,VWS V14.00,2013-03-27 20:31:00,
2013-03-27 15:37:00,64.0,30.3,30.09,SSW,202,2.0,10.0,28,0.00,,---,0.00,VWS V14.00,2013-03-27 20:37:00,
2013-03-27 15:42:00,65.2,31.3,30.08,SE,125,5.0,7.0,28,0.00,,---,0.00,VWS V14.00,2013-03-27 20:42:00,
2013-03-27 15:48:00,64.9,31.0,30.08,SSE,164,0.0,20.0,28,0.00,,---,0.00,VWS V14.00,2013-03-27 20:48:00,
2013-03-27 15:54:00,65.1,31.2,30.08,South,185,3.0,14.0,28,0.00,,---,0.00,VWS V14.00,2013-03-27 20:54:00,
2013-03-27 15:59:00,65.1,30.3,30.07,SE,142,7.0,22.0,27,0.00,,---,0.00,VWS V14.00,2013-03-27 20:59:00,
2013-03-27 16:05:00,64.9,31.0,30.07,South,176,9.0,14.0,28,0.00,,---,0.00,VWS V14.00,2013-03-27 21:05:00,
2013-03-27 16:10:00,65.1,31.2,30.08,SSW,194,14.0,16.0,28,0.00,,---,0.00,VWS V14.00,2013-03-27 21:10:00,
2013-03-27 16:15:00,65.0,31.1,30.08,South,179,9.0,14.0,28,0.00,,---,0.00,VWS V14.00,2013-03-27 21:15:00,
2013-03-27 16:20:00,65.2,30.4,30.08,SSW,193,4.0,17.0,27,0.00,,---,0.00,VWS V14.00,2013-03-27 21:20:00,
2013-03-27 16:25:00,65.5,31.6,30.08,SE,128,0.0,4.0,28,0.00,,---,0.00,VWS V14.00,2013-03-27 21:25:00,
2013-03-27 16:30:00,65.5,31.6,30.08,South,173,1.0,18.0,28,0.00,,---,0.00,VWS V14.00,2013-03-27 21:30:00,
2013-03-27 16:35:00,65.8,30.9,30.08,ESE,122,11.0,13.0,27,0.00,,---,0.00,VWS V14.00,2013-03-27 21:35:00,
2013-03-27 16:40:00,65.6,30.8,30.08,ESE,120,3.0,10.0,27,0.00,,---,0.00,VWS V14.00,2013-03-27 21:40:00,
2013-03-27 16:45:00,65.4,31.5,30.08,SSE,152,3.0,19.0,28,0.00,,---,0.00,VWS V14.00,2013-03-27 21:45:00,
2013-03-27 16:50:00,65.7,31.7,30.08,SE,141,6.0,12.0,28,0.00,,---,0.00,VWS V14.00,2013-03-27 21:50:00,
2013-03-27 16:56:00,66.2,32.2,30.07,SE,126,9.0,14.0,28,0.00,,---,0.00,VWS V14.00,2013-03-27 21:56:00,
2013-03-27 17:02:00,66.5,32.4,30.07,SSW,193,0.0,4.0,28,0.00,,---,0.00,VWS V14.00,2013-03-27 22:02:00,
2013-03-27 17:07:00,66.0,32.0,30.07,SE,128,6.0,10.0,28,0.00,,---,0.00,VWS V14.00,2013-03-27 22:07:00,
2013-03-27 17:12:00,66.3,33.1,30.07,South,191,6.0,6.0,29,0.00,,---,0.00,VWS V14.00,2013-03-27 22:12:00,
2013-03-27 17:17:00,66.3,32.2,30.07,South,172,0.0,10.0,28,0.00,,---,0.00,VWS V14.00,2013-03-27 22:17:00,
2013-03-27 17:23:00,66.5,33.3,30.07,SSE,158,3.0,12.0,29,0.00,,---,0.00,VWS V14.00,2013-03-27 22:23:00,
2013-03-27 17:28:00,66.8,33.5,30.07,SE,136,10.0,14.0,29,0.00,,---,0.00,VWS V14.00,2013-03-27 22:28:00,
2013-03-27 17:33:00,66.4,33.2,30.07,South,174,5.0,10.0,29,0.00,,---,0.00,VWS V14.00,2013-03-27 22:33:00,
2013-03-27 17:38:00,66.7,33.5,30.07,South,181,4.0,11.0,29,0.00,,---,0.00,VWS V14.00,2013-03-27 22:38:00,
2013-03-27 17:43:00,66.6,33.4,30.07,South,188,4.0,11.0,29,0.00,,---,0.00,VWS V14.00,2013-03-27 22:43:00,
2013-03-27 17:48:00,67.0,33.7,30.07,South,181,6.0,10.0,29,0.00,,---,0.00,VWS V14.00,2013-03-27 22:48:00,
2013-03-27 17:53:00,66.5,33.3,30.07,South,181,9.0,12.0,29,0.00,,---,0.00,VWS V14.00,2013-03-27 22:53:00,
2013-03-27 17:58:00,66.3,34.0,30.08,ESE,105,2.0,6.0,30,0.00,,---,0.00,VWS V14.00,2013-03-27 22:58:00,
2013-03-27 18:03:00,66.3,34.0,30.08,South,178,1.0,2.0,30,0.00,,---,0.00,VWS V14.00,2013-03-27 23:03:00,
2013-03-27 18:08:00,66.6,34.2,30.08,South,170,0.0,0.0,30,0.00,,---,0.00,VWS V14.00,2013-03-27 23:08:00,
2013-03-27 18:13:00,66.8,34.4,30.07,SE,141,11.0,11.0,30,0.00,,---,0.00,VWS V14.00,2013-03-27 23:13:00,
2013-03-27 18:19:00,65.9,33.6,30.07,SE,125,3.0,10.0,30,0.00,,---,0.00,VWS V14.00,2013-03-27 23:19:00,
2013-03-27 18:25:00,65.8,33.5,30.08,SSW,196,2.0,10.0,30,0.00,,---,0.00,VWS V14.00,2013-03-27 23:25:00,
2013-03-27 18:30:00,65.8,33.5,30.08,ESE,119,1.0,10.0,30,0.00,,---,0.00,VWS V14.00,2013-03-27 23:30:00,
2013-03-27 18:35:00,65.6,33.4,30.08,SE,131,2.0,9.0,30,0.00,,---,0.00,VWS V14.00,2013-03-27 23:35:00,
2013-03-27 18:40:00,65.6,33.4,30.08,SE,138,6.0,14.0,30,0.00,,---,0.00,VWS V14.00,2013-03-27 23:40:00,
2013-03-27 18:45:00,65.4,34.0,30.08,ESE,122,0.0,6.0,31,0.00,,---,0.00,VWS V14.00,2013-03-27 23:45:00,
2013-03-27 18:50:00,65.3,33.9,30.08,SSW,205,4.0,13.0,31,0.00,,---,0.00,VWS V14.00,2013-03-27 23:50:00,
2013-03-27 18:55:00,65.2,33.8,30.08,SE,124,0.0,13.0,31,0.00,,---,0.00,VWS V14.00,2013-03-27 23:55:00,
2013-03-27 19:00:00,65.1,33.7,30.08,SE,129,7.0,9.0,31,0.00,,---,0.00,VWS V14.00,2013-03-28 00:00:00,
2013-03-27 19:05:00,64.9,33.6,30.08,SE,127,5.0,11.0,31,0.00,,---,0.00,VWS V14.00,2013-03-28 00:05:00,
2013-03-27 19:11:00,64.7,34.2,30.08,SE,139,3.0,11.0,32,0.00,,---,0.00,VWS V14.00,2013-03-28 00:11:00,
2013-03-27 19:17:00,64.5,34.0,30.08,SE,124,5.0,5.0,32,0.00,,---,0.00,VWS V14.00,2013-03-28 00:17:00,
2013-03-27 19:22:00,64.3,33.8,30.08,SE,132,4.0,4.0,32,0.00,,---,0.00,VWS V14.00,2013-03-28 00:22:00,
2013-03-27 19:27:00,64.0,34.3,30.08,SE,130,1.0,3.0,33,0.00,,---,0.00,VWS V14.00,2013-03-28 00:27:00,
2013-03-27 19:32:00,63.8,34.2,30.08,SE,126,4.0,14.0,33,0.00,,---,0.00,VWS V14.00,2013-03-28 00:32:00,
2013-03-27 19:37:00,63.6,34.0,30.08,SSE,148,0.0,6.0,33,0.00,,---,0.00,VWS V14.00,2013-03-28 00:37:00,
2013-03-27 19:43:00,63.1,34.3,30.08,SSE,147,0.0,0.0,34,0.00,,---,0.00,VWS V14.00,2013-03-28 00:43:00,
2013-03-27 19:49:00,62.5,33.8,30.08,SE,143,2.0,5.0,34,0.00,,---,0.00,VWS V14.00,2013-03-28 00:49:00,
2013-03-27 19:54:00,62.1,33.4,30.08,SE,130,9.0,12.0,34,0.00,,---,0.00,VWS V14.00,2013-03-28 00:54:00,
2013-03-27 19:59:00,61.8,33.2,30.09,SE,128,0.0,7.0,34,0.00,,---,0.00,VWS V14.00,2013-03-28 00:59:00,
2013-03-27 20:04:00,61.5,32.9,30.09,ESE,119,0.0,7.0,34,0.00,,---,0.00,VWS V14.00,2013-03-28 01:04:00,
2013-03-27 20:09:00,61.2,33.3,30.09,SSE,147,0.0,0.0,35,0.00,,---,0.00,VWS V14.00,2013-03-28 01:09:00,
2013-03-27 20:14:00,60.9,33.1,30.10,SE,139,0.0,5.0,35,0.00,,---,0.00,VWS V14.00,2013-03-28 01:14:00,
2013-03-27 20:19:00,60.7,33.6,30.10,SE,131,0.0,3.0,36,0.00,,---,0.00,VWS V14.00,2013-03-28 01:19:00,
2013-03-27 20:24:00,60.4,33.3,30.10,ESE,117,4.0,4.0,36,0.00,,---,0.00,VWS V14.00,2013-03-28 01:24:00,
2013-03-27 20:29:00,60.0,33.0,30.10,ESE,122,3.0,4.0,36,0.00,,---,0.00,VWS V14.00,2013-03-28 01:29:00,
2013-03-27 20:34:00,59.8,32.8,30.10,ESE,122,9.0,9.0,36,0.00,,---,0.00,VWS V14.00,2013-03-28 01:34:00,
2013-03-27 20:39:00,59.7,32.7,30.10,SE,136,0.0,5.0,36,0.00,,---,0.00,VWS V14.00,2013-03-28 01:39:00,
2013-03-27 20:44:00,59.5,33.2,30.10,SE,124,0.0,5.0,37,0.00,,---,0.00,VWS V14.00,2013-03-28 01:44:00,
2013-03-27 20:49:00,59.3,33.0,30.10,SE,143,2.0,9.0,37,0.00,,---,0.00,VWS V14.00,2013-03-28 01:49:00,
2013-03-27 20:55:00,59.2,33.0,30.11,SE,127,2.0,8.0,37,0.00,,---,0.00,VWS V14.00,2013-03-28 01:55:00,
2013-03-27 21:02:00,58.8,32.6,30.11,SE,135,3.0,9.0,37,0.00,,---,0.00,VWS V14.00,2013-03-28 02:02:00,
2013-03-27 21:07:00,58.7,32.5,30.11,SE,134,0.0,2.0,37,0.00,,---,0.00,VWS V14.00,2013-03-28 02:07:00,
2013-03-27 21:12:00,58.5,32.3,30.11,SE,130,8.0,9.0,37,0.00,,---,0.00,VWS V14.00,2013-03-28 02:12:00,
2013-03-27 21:17:00,58.6,32.4,30.11,SE,124,0.0,0.0,37,0.00,,---,0.00,VWS V14.00,2013-03-28 02:17:00,
2013-03-27 21:22:00,58.6,31.8,30.11,SE,138,4.0,5.0,36,0.00,,---,0.00,VWS V14.00,2013-03-28 02:22:00,
2013-03-27 21:28:00,58.7,31.8,30.11,ESE,106,8.0,8.0,36,0.00,,---,0.00,VWS V14.00,2013-03-28 02:28:00,
2013-03-27 21:34:00,58.7,31.8,30.11,SSE,167,0.0,0.0,36,0.00,,---,0.00,VWS V14.00,2013-03-28 02:34:00,
2013-03-27 21:39:00,58.6,31.8,30.11,SE,134,0.0,7.0,36,0.00,,---,0.00,VWS V14.00,2013-03-28 02:39:00,
2013-03-27 21:44:00,58.5,31.7,30.11,SE,146,0.0,5.0,36,0.00,,---,0.00,VWS V14.00,2013-03-28 02:44:00,
2013-03-27 21:49:00,58.4,31.6,30.11,SE,129,0.0,9.0,36,0.00,,---,0.00,VWS V14.00,2013-03-28 02:49:00,
2013-03-27 21:50:00,57.8,31.7,30.13,SE,129,2.0,2.0,37,0.00,,---,0.00,VWS V14.00,2013-03-28 02:50:00,
2013-03-27 21:51:00,57.9,31.8,30.13,SE,129,0.0,3.0,37,0.00,,---,0.00,VWS V14.00,2013-03-28 02:51:00,
2013-03-27 21:52:00,57.9,31.8,30.13,SE,127,4.0,8.0,37,0.00,,---,0.00,VWS V14.00,2013-03-28 02:52:00,
2013-03-27 21:53:00,57.9,31.8,30.13,SE,127,0.0,4.0,37,0.00,,---,0.00,VWS V14.00,2013-03-28 02:53:00,
2013-03-27 21:54:00,58.4,32.2,30.11,SSE,150,3.0,12.0,37,0.00,,---,0.00,VWS V14.00,2013-03-28 02:54:00,
2013-03-27 21:55:00,57.8,31.7,30.13,SE,134,1.0,7.0,37,0.00,,---,0.00,VWS V14.00,2013-03-28 02:55:00,
2013-03-27 21:56:00,57.9,31.8,30.13,ESE,118,1.0,13.0,37,0.00,,---,0.00,VWS V14.00,2013-03-28 02:56:00,
2013-03-27 21:57:00,57.9,31.8,30.13,SSE,158,2.0,5.0,37,0.00,,---,0.00,VWS V14.00,2013-03-28 02:57:00,
2013-03-27 21:58:00,57.9,31.8,30.13,SSE,153,4.0,4.0,37,0.00,,---,0.00,VWS V14.00,2013-03-28 02:58:00,
2013-03-27 21:59:00,58.3,32.2,30.12,ESE,120,10.0,11.0,37,0.00,,---,0.00,VWS V14.00,2013-03-28 02:59:00,
2013-03-27 22:00:00,57.8,31.7,30.13,SSE,153,0.0,0.0,37,0.00,,---,0.00,VWS V14.00,2013-03-28 03:00:00,
2013-03-27 22:02:00,57.7,32.3,30.13,East,79,4.0,4.0,38,0.00,,---,0.00,VWS V14.00,2013-03-28 03:02:00,
2013-03-27 22:03:00,57.7,32.3,30.13,SE,131,7.0,7.0,38,0.00,,---,0.00,VWS V14.00,2013-03-28 03:03:00,
2013-03-27 22:04:00,58.3,32.2,30.12,SE,141,0.0,6.0,37,0.00,,---,0.00,VWS V14.00,2013-03-28 03:04:00,
2013-03-27 22:05:00,57.6,32.2,30.13,SE,132,0.0,0.0,38,0.00,,---,0.00,VWS V14.00,2013-03-28 03:05:00,
2013-03-27 22:06:00,57.6,32.2,30.13,SE,131,1.0,9.0,38,0.00,,---,0.00,VWS V14.00,2013-03-28 03:06:00,
2013-03-27 22:07:00,57.5,32.1,30.13,South,175,0.0,5.0,38,0.00,,---,0.00,VWS V14.00,2013-03-28 03:07:00,
2013-03-27 22:08:00,57.5,32.1,30.13,ESE,117,0.0,9.0,38,0.00,,---,0.00,VWS V14.00,2013-03-28 03:08:00,
2013-03-27 22:09:00,58.3,32.2,30.12,SSE,167,0.0,14.0,37,0.00,,---,0.00,VWS V14.00,2013-03-28 03:09:00,
2013-03-27 22:10:00,57.5,32.1,30.13,SE,130,3.0,5.0,38,0.00,,---,0.00,VWS V14.00,2013-03-28 03:10:00,
2013-03-27 22:11:00,57.5,32.1,30.13,SE,135,0.0,4.0,38,0.00,,---,0.00,VWS V14.00,2013-03-28 03:11:00,
2013-03-27 22:12:00,57.5,32.1,30.13,SE,134,0.0,0.0,38,0.00,,---,0.00,VWS V14.00,2013-03-28 03:12:00,
2013-03-27 22:13:00,57.5,32.1,30.13,SE,134,4.0,15.0,38,0.00,,---,0.00,VWS V14.00,2013-03-28 03:13:00,
2013-03-27 22:14:00,58.3,31.5,30.12,SE,124,0.0,7.0,36,0.00,,---,0.00,VWS V14.00,2013-03-28 03:14:00,
2013-03-27 22:15:00,57.4,32.0,30.14,SE,134,5.0,7.0,38,0.00,,---,0.00,VWS V14.00,2013-03-28 03:15:00,
2013-03-27 22:16:00,57.5,32.1,30.14,SE,134,0.0,7.0,38,0.00,,---,0.00,VWS V14.00,2013-03-28 03:16:00,
2013-03-27 22:17:00,57.5,32.1,30.14,SE,134,0.0,6.0,38,0.00,,---,0.00,VWS V14.00,2013-03-28 03:17:00,
2013-03-27 22:18:00,57.4,32.0,30.14,SE,134,2.0,5.0,38,0.00,,---,0.00,VWS V14.00,2013-03-28 03:18:00,
2013-03-27 22:19:00,58.2,32.1,30.12,SSE,159,0.0,5.0,37,0.00,,---,0.00,VWS V14.00,2013-03-28 03:19:00,
2013-03-27 22:20:00,57.4,32.0,30.14,SE,134,1.0,5.0,38,0.00,,---,0.00,VWS V14.00,2013-03-28 03:20:00,
2013-03-27 22:21:00,57.3,31.9,30.14,SE,133,0.0,5.0,38,0.00,,---,0.00,VWS V14.00,2013-03-28 03:21:00,
2013-03-27 22:22:00,57.3,31.9,30.14,SE,133,0.0,5.0,38,0.00,,---,0.00,VWS V14.00,2013-03-28 03:22:00,
2013-03-27 22:23:00,57.3,31.9,30.14,SE,133,0.0,0.0,38,0.00,,---,0.00,VWS V14.00,2013-03-28 03:23:00,
2013-03-27 22:24:00,57.2,31.8,30.14,SE,131,1.0,10.0,38,0.00,,---,0.00,VWS V14.00,2013-03-28 03:24:00,
2013-03-27 22:25:00,58.2,32.1,30.12,SE,127,0.0,6.0,37,0.00,,---,0.00,VWS V14.00,2013-03-28 03:25:00,
2013-03-27 22:26:00,57.2,31.8,30.14,SE,129,0.0,5.0,38,0.00,,---,0.00,VWS V14.00,2013-03-28 03:26:00,
2013-03-27 22:27:00,57.2,31.8,30.14,SE,129,0.0,2.0,38,0.00,,---,0.00,VWS V14.00,2013-03-28 03:27:00,
2013-03-27 22:28:00,57.1,31.8,30.14,SE,129,4.0,5.0,38,0.00,,---,0.00,VWS V14.00,2013-03-28 03:28:00,
2013-03-27 22:29:00,57.1,31.8,30.14,SE,129,0.0,6.0,38,0.00,,---,0.00,VWS V14.00,2013-03-28 03:29:00,
2013-03-27 22:30:00,58.2,32.1,30.12,SE,138,10.0,10.0,37,0.00,,---,0.00,VWS V14.00,2013-03-28 03:30:00,
2013-03-27 22:31:00,57.0,31.7,30.13,South,185,0.0,4.0,38,0.00,,---,0.00,VWS V14.00,2013-03-28 03:31:00,
2013-03-27 22:32:00,57.0,31.7,30.13,South,184,0.0,0.0,38,0.00,,---,0.00,VWS V14.00,2013-03-28 03:32:00,
2013-03-27 22:33:00,56.9,31.6,30.13,South,184,0.0,0.0,38,0.00,,---,0.00,VWS V14.00,2013-03-28 03:33:00,
2013-03-27 22:34:00,56.9,31.6,30.13,South,184,0.0,0.0,38,0.00,,---,0.00,VWS V14.00,2013-03-28 03:34:00,
2013-03-27 22:35:00,58.2,32.1,30.12,SE,133,10.0,11.0,37,0.00,,---,0.00,VWS V14.00,2013-03-28 03:35:00,
2013-03-27 22:36:00,56.7,31.4,30.13,SE,138,0.0,3.0,38,0.00,,---,0.00,VWS V14.00,2013-03-28 03:36:00,
2013-03-27 22:37:00,56.7,31.4,30.13,ESE,105,0.0,0.0,38,0.00,,---,0.00,VWS V14.00,2013-03-28 03:37:00,
2013-03-27 22:38:00,56.7,31.4,30.13,SSE,160,0.0,9.0,38,0.00,,---,0.00,VWS V14.00,2013-03-28 03:38:00,
2013-03-27 22:39:00,56.7,31.4,30.13,SSE,160,4.0,5.0,38,0.00,,---,0.00,VWS V14.00,2013-03-28 03:39:00,
2013-03-27 22:40:00,58.2,32.1,30.13,SE,146,0.0,5.0,37,0.00,,---,0.00,VWS V14.00,2013-03-28 03:40:00,
2013-03-27 22:41:00,56.7,31.4,30.13,SE,134,0.0,7.0,38,0.00,,---,0.00,VWS V14.00,2013-03-28 03:41:00,
2013-03-27 22:42:00,56.7,31.4,30.13,SE,134,0.0,9.0,38,0.00,,---,0.00,VWS V14.00,2013-03-28 03:42:00,
2013-03-27 22:43:00,56.7,31.4,30.13,SE,139,0.0,9.0,38,0.00,,---,0.00,VWS V14.00,2013-03-28 03:43:00,
2013-03-27 22:44:00,56.6,31.3,30.13,South,169,3.0,6.0,38,0.00,,---,0.00,VWS V14.00,2013-03-28 03:44:00,
2013-03-27 22:45:00,58.0,31.9,30.13,SE,129,0.0,5.0,37,0.00,,---,0.00,VWS V14.00,2013-03-28 03:45:00,
2013-03-27 22:46:00,56.6,31.3,30.13,SE,127,3.0,8.0,38,0.00,,---,0.00,VWS V14.00,2013-03-28 03:46:00,
2013-03-27 22:48:00,56.6,31.3,30.13,SE,139,6.0,10.0,38,0.00,,---,0.00,VWS V14.00,2013-03-28 03:48:00,
2013-03-27 22:49:00,56.6,31.3,30.13,SE,136,5.0,11.0,38,0.00,,---,0.00,VWS V14.00,2013-03-28 03:49:00,
2013-03-27 22:50:00,56.6,31.3,30.13,SE,130,7.0,9.0,38,0.00,,---,0.00,VWS V14.00,2013-03-28 03:50:00,
2013-03-27 22:51:00,57.9,32.5,30.13,ESE,108,4.0,4.0,38,0.00,,---,0.00,VWS V14.00,2013-03-28 03:51:00,
2013-03-27 22:52:00,56.6,31.3,30.13,SSE,168,1.0,4.0,38,0.00,,---,0.00,VWS V14.00,2013-03-28 03:52:00,
2013-03-27 22:53:00,56.6,31.3,30.13,East,99,2.0,3.0,38,0.00,,---,0.00,VWS V14.00,2013-03-28 03:53:00,
2013-03-27 22:54:00,56.6,31.3,30.13,SE,133,1.0,9.0,38,0.00,,---,0.00,VWS V14.00,2013-03-28 03:54:00,
2013-03-27 22:55:00,56.5,31.2,30.13,SE,132,0.0,4.0,38,0.00,,---,0.00,VWS V14.00,2013-03-28 03:55:00,
2013-03-27 22:56:00,57.8,31.7,30.13,SE,124,4.0,6.0,37,0.00,,---,0.00,VWS V14.00,2013-03-28 03:56:00,
2013-03-27 22:57:00,56.4,31.1,30.13,SE,130,0.0,7.0,38,0.00,,---,0.00,VWS V14.00,2013-03-28 03:57:00,
2013-03-27 22:58:00,56.4,31.1,30.13,SE,130,0.0,0.0,38,0.00,,---,0.00,VWS V14.00,2013-03-28 03:58:00,
2013-03-27 22:59:00,56.4,31.1,30.13,ESE,122,0.0,11.0,38,0.00,,---,0.00,VWS V14.00,2013-03-28 03:59:00,
2013-03-27 23:00:00,56.3,31.0,30.13,SE,127,11.0,12.0,38,0.00,,---,0.00,VWS V14.00,2013-03-28 04:00:00,
2013-03-27 23:01:00,56.3,31.0,30.13,SE,140,0.0,11.0,38,0.00,,---,0.00,VWS V14.00,2013-03-28 04:01:00,
2013-03-27 23:02:00,56.3,31.0,30.13,SE,140,0.0,1.0,38,0.00,,---,0.00,VWS V14.00,2013-03-28 04:02:00,
2013-03-27 23:04:00,56.2,31.0,30.13,ESE,122,4.0,7.0,38,0.00,,---,0.00,VWS V14.00,2013-03-28 04:04:00,
2013-03-27 23:05:00,56.3,30.4,30.13,South,184,9.0,11.0,37,0.00,,---,0.00,VWS V14.00,2013-03-28 04:05:00,
2013-03-27 23:07:00,56.2,30.3,30.13,SE,139,1.0,4.0,37,0.00,,---,0.00,VWS V14.00,2013-03-28 04:07:00,
2013-03-27 23:11:00,56.1,30.9,30.13,SSE,155,0.0,7.0,38,0.00,,---,0.00,VWS V14.00,2013-03-28 04:11:00,
2013-03-27 23:14:00,56.0,30.1,30.13,SE,127,0.0,11.0,37,0.00,,---,0.00,VWS V14.00,2013-03-28 04:14:00,
2013-03-27 23:16:00,56.0,30.1,30.13,SE,127,0.0,0.0,37,0.00,,---,0.00,VWS V14.00,2013-03-28 04:16:00,
2013-03-27 23:17:00,55.9,30.7,30.13,SE,132,0.0,4.0,38,0.00,,---,0.00,VWS V14.00,2013-03-28 04:17:00,
2013-03-27 23:25:00,55.5,30.3,30.13,South,181,0.0,0.0,38,0.00,,---,0.00,VWS V14.00,2013-03-28 04:25:00,
2013-03-27 23:26:00,55.5,30.3,30.13,South,181,0.0,0.0,38,0.00,,---,0.00,VWS V14.00,2013-03-28 04:26:00,
2013-03-27 23:34:00,55.1,30.6,30.13,SE,136,0.0,4.0,39,0.00,,---,0.00,VWS V14.00,2013-03-28 04:34:00,